TimeEST,TemperatureF,Dew PointF,Humidity,Sea Level PressureIn,VisibilityMPH,Wind Direction,Wind SpeedMPH,Gust SpeedMPH,PrecipitationIn,Events,Conditions,WindDirDegrees,DateUTC
12:56 AM,21.9,12.9,68,30.24,10.0,Calm,Calm,-,N/A,,Clear,0,2014-03-05 05:56:00
1:56 AM,21.0,14.0,74,30.24,9.0,North,6.9,-,N/A,,Clear,360,2014-03-05 06:56:00
2:56 AM,18.0,12.0,78,30.23,9.0,NNE,5.8,-,N/A,,Clear,20,2014-03-05 07:56:00
3:56 AM,18.0,10.9,74,30.25,9.0,NNE,4.6,-,N/A,,Clear,20,2014-03-05 08:56:00
4:56 AM,17.1,10.9,77,30.26,8.0,North,5.8,-,N/A,,Clear,360,2014-03-05 09:56:00
5:56 AM,18.0,10.9,74,30.28,8.0,North,4.6,-,N/A,,Clear,10,2014-03-05 10:56:00
6:56 AM,16.0,10.0,77,30.31,7.0,North,5.8,-,N/A,,Partly Cloudy,350,2014-03-05 11:56:00
7:56 AM,19.0,10.9,71,30.33,7.0,NNE,9.2,-,N/A,,Partly Cloudy,20,2014-03-05 12:56:00
8:56 AM,21.9,10.0,60,30.34,10.0,NNE,12.7,-,N/A,,Partly Cloudy,30,2014-03-05 13:56:00
9:56 AM,25.0,10.0,53,30.34,10.0,NE,9.2,-,N/A,,Partly Cloudy,40,2014-03-05 14:56:00
10:56 AM,28.0,9.0,45,30.35,10.0,NE,8.1,16.1,N/A,,Scattered Clouds,50,2014-03-05 15:56:00
11:56 AM,30.0,12.0,47,30.36,10.0,North,10.4,-,N/A,,Scattered Clouds,10,2014-03-05 16:56:00
12:56 PM,32.0,16.0,52,30.35,10.0,NE,11.5,-,N/A,,Scattered Clouds,40,2014-03-05 17:56:00
1:56 PM,30.9,16.0,54,30.34,10.0,NNE,12.7,-,N/A,,Mostly Cloudy,30,2014-03-05 18:56:00
2:56 PM,32.0,17.1,54,30.33,10.0,NE,10.4,-,N/A,,Scattered Clouds,50,2014-03-05 19:56:00
3:56 PM,32.0,19.0,59,30.34,10.0,NE,11.5,-,N/A,,Mostly Cloudy,40,2014-03-05 20:56:00
4:56 PM,28.9,19.0,67,30.37,10.0,NE,13.8,-,N/A,,Overcast,40,2014-03-05 21:56:00
5:28 PM,28.4,17.6,64,30.33,10.0,NE,16.1,-,N/A,,Overcast,50,2014-03-05 22:28:00
5:56 PM,27.0,18.0,69,30.38,10.0,NE,16.1,-,N/A,,Overcast,50,2014-03-05 22:56:00
6:14 PM,26.6,17.6,69,30.34,9.0,NE,16.1,-,N/A,,Overcast,50,2014-03-05 23:14:00
6:56 PM,25.0,17.1,72,30.40,9.0,NE,18.4,-,N/A,,Overcast,50,2014-03-05 23:56:00
7:56 PM,24.1,17.1,75,30.40,5.0,NE,17.3,-,0.00,Snow,Light Snow,50,2014-03-06 00:56:00
8:27 PM,23.0,15.8,74,30.35,10.0,ENE,17.3,23.0,0.00,,Clear,60,2014-03-06 01:27:00
8:56 PM,24.1,15.1,69,30.40,10.0,ENE,11.5,-,0.00,,Overcast,60,2014-03-06 01:56:00
9:56 PM,21.9,12.0,66,30.41,10.0,NE,12.7,-,N/A,,Partly Cloudy,50,2014-03-06 02:56:00
10:56 PM,21.0,12.0,68,30.41,10.0,ENE,10.4,-,N/A,,Partly Cloudy,60,2014-03-06 03:56:00
11:56 PM,21.0,12.0,68,30.40,10.0,NE,11.5,-,N/A,,Scattered Clouds,50,2014-03-06 04:56:00